Weather History for Crestview, FL

Change the Weather History Date:

Sunday, December 30, 2012

  Actual Average Record
Temperature  
Mean Temperature 41 °F -  
Max Temperature 54 °F 58 °F 78 °F (1996)
Min Temperature 28 °F 43 °F 18 °F (1983)
Degree Days  
Heating Degree Days 24    
Moisture  
Dew Point 27 °F    
Average Humidity 67    
Maximum Humidity 92    
Minimum Humidity 35    
Precipitation  
Precipitation 0.00 in - - ()
Sea Level Pressure  
Sea Level Pressure 30.42 in    
Wind  
Wind Speed 5 mph (North)    
Max Wind Speed 10 mph    
Max Gust Speed 16 mph    
Visibility 10 miles    
Events      
Averages and records for this station are not official NWS values.
T = Trace of Precipitation, MM = Missing Value Source: NWS Daily Summary

Daily Weather History Graph

Daily Weather History Graph

Search for Another Location

Airport:

Trip Planner

Search our weather history database for the weather conditions in past years. The results will help you decide how hot, cold, wet, or windy it might be!

Date:

Astronomy

Dec. 30, 2012 Rise Set
Actual Time 6:43 AM CST 4:54 PM CST
Civil Twilight 6:16 AM CST 5:21 PM CST
Nautical Twilight 5:46 AM CST 5:51 PM CST
Astronomical Twilight 5:17 AM CST 6:20 PM CST
Moon 7:14 PM CST (12/30) 8:01 AM CST (12/30)
Length of Visible Light 11h 04m
Length of Day
10h 11m
Waning Gibbous, 95% of the Moon is Illuminated
Dec 30
Waning Gibbous
Jan 4
Last Quarter
Jan 11
New
Jan 18
First Quarter
Jan 26
Full

Hourly Weather History & Observations

Time (CST) Temp. Windchill Dew Point Humidity Pressure Visibility Wind Dir Wind Speed Gust Speed Precip Events Conditions
12:50 AM 37.4 °F 30.3 °F 26.6 °F 65% 30.37 in 10.0 mi North 10.4 mph - N/A   Scattered Clouds
12:53 AM 36.0 °F 30.3 °F 26.1 °F 67% 30.37 in 10.0 mi North 6.9 mph - N/A   Partly Cloudy
1:53 AM 35.1 °F 31.0 °F 25.0 °F 67% 30.39 in 10.0 mi NNW 4.6 mph - N/A   Clear
2:53 AM 32.0 °F 28.7 °F 25.0 °F 75% 30.40 in 10.0 mi NNW 3.5 mph - N/A   Clear
3:53 AM 32.0 °F 27.5 °F 24.1 °F 73% 30.40 in 10.0 mi North 4.6 mph - N/A   Clear
4:53 AM 30.0 °F 26.5 °F 25.0 °F 82% 30.42 in 10.0 mi NNW 3.5 mph - N/A   Clear
5:53 AM 28.9 °F 25.2 °F 24.1 °F 82% 30.44 in 10.0 mi NNW 3.5 mph - N/A   Clear
6:53 AM 28.9 °F 25.2 °F 24.1 °F 82% 30.46 in 8.0 mi North 3.5 mph - N/A   Clear
7:53 AM 32.0 °F 27.5 °F 25.0 °F 75% 30.49 in 9.0 mi Variable 4.6 mph - N/A   Clear
8:53 AM 37.0 °F 31.6 °F 25.0 °F 62% 30.51 in 10.0 mi North 6.9 mph - N/A   Clear
9:53 AM 39.9 °F 35.1 °F 26.1 °F 58% 30.50 in 10.0 mi North 6.9 mph 16.1 mph N/A   Clear
10:53 AM 45.0 °F 40.1 °F 26.1 °F 48% 30.48 in 10.0 mi NNE 9.2 mph - N/A   Clear
11:53 AM 48.0 °F - 25.0 °F 41% 30.46 in 10.0 mi North 8.1 mph - N/A   Clear
12:53 PM 51.1 °F - 25.0 °F 36% 30.43 in 10.0 mi North 5.8 mph - N/A   Clear
1:53 PM 54.0 °F - 27.0 °F 35% 30.39 in 10.0 mi NNE 5.8 mph - N/A   Clear
2:53 PM 54.0 °F - 27.0 °F 35% 30.38 in 10.0 mi North 4.6 mph - N/A   Clear
3:53 PM 53.1 °F - 27.0 °F 37% 30.38 in 10.0 mi North 6.9 mph - N/A   Clear
4:53 PM 48.9 °F - 28.9 °F 46% 30.39 in 10.0 mi Calm Calm - N/A   Clear
5:53 PM 37.9 °F - 30.9 °F 76% 30.40 in 10.0 mi Calm Calm - N/A   Clear
6:53 PM 36.0 °F - 32.0 °F 86% 30.40 in 10.0 mi Calm Calm - N/A   Clear
7:53 PM 34.0 °F 31.0 °F 30.9 °F 89% 30.42 in 10.0 mi North 3.5 mph - N/A   Clear
8:53 PM 33.1 °F - 30.0 °F 89% 30.42 in 10.0 mi Calm Calm - N/A   Clear
9:53 PM 30.0 °F - 28.0 °F 92% 30.43 in 8.0 mi Calm Calm - N/A   Clear
10:53 PM 30.0 °F - 28.0 °F 92% 30.41 in 7.0 mi Calm Calm - N/A   Clear
11:53 PM 30.0 °F - 28.0 °F 92% 30.41 in 8.0 mi Calm Calm - N/A   Clear